SCP
0 0 0 0 0 0 0 0 0 0 0 0 0 0 0 0 0 0 0 0 0 0 0 0 0 0 0 0 0 0 0 0 0 0 0 0 0 0 0 0 0 0 0
0 0 0 0 0 0 0 0 0 0 0 0 0 0 0 0 0 0 0 0 0 0 0 0 0 0 0 0 0 0 0 0 0 0 0 0 0 0 0 0 0 0 0
0 0 0 0 0 0 0 0 0 0 0 0 0 0 0 0 0 0 0 0 0 0 0 0 0 0 0 0 0 0 0 0 0 0 0 0 0 0 0 0 0 0 0
0 0 0 0 0 0 0 0 0 0 0 0 0 0 0 0 0 0 0 0 0 0 0 0 0 0 0 0 0 0 0 0 0 0 0 0 0 0 0 0 0 0 0
0 0 0 0 0 0 0 0 0 0 0 0 0 0 0 0 0 0 0 0 0 0 0 0 0 0 0 0 0 0 0 0 0 0 0 0 0 0 0 0 0 0 0
0 0 0 0 0 0 0 0 0 0 0 0 0 0 0 0 0 0 0 0 0 0 0 0 0 0 0 0 0 0 0 0 0 0 0 0 0 0 0 0 0 0 0
0 0 0 0 0 0 0 0 0 0 0 0 0 0 0 0 0 0 0 0 0 0 0 0 0 0 0 0 0 0 0 0 0 0 0 0 0 0 0 0 0 0 0
0 0 0 0 0 0 0 0 0 0 0 0 0 0 0 0 0 0 0 0 0 0 0 0 0 0 0 0 0 0 0 0 0 0 0 0 0 0 0 0 0 0 0
0 0 0 0 0 0 0 0 0 0 0 0 0 0 0 0 0 0 0 0 0 0 0 0 0 0 0 0 0 0 0 0 0 0 0 0 0 0 0 0 0 0 0
0 0 0 0 0 0 0 0 0 0 0 0 0 0 0 0 0 0 0 0 0 0 0 0 0 0 0 0 0 0 0 0 0 0 0 0 0 0 0 0 0 0 0
0 0 0 0 0 0 0 0 0 0 0 0 0 0 0 0 0 0 0 0 0 0 0 0 0 0 0 0 0 0 0 0 0 0 0 0 0 0 0 0 0 0 0
0 0 0 0 0 0 0 0 0 0 0 0 0 0 0 0 0 0 0 0 0 0 0 0 0 0 0 0 0 0 0 0 0 0 0 0 0 0 0 0 0 0 0
0 0 0 0 0 0 0 0 0 0 0 0 0 0 0 0 0 0 0 0 0 0 0 0 0 0 0 0 0 0 0 0 0 0 0 0 0 0 0 0 0 0 0
0 0 0 0 0 0 0 0 0 0 0 0 0 0 0 0 0 0 0 0 0 0 0 0 0 0 0 0 0 0 0 0 0 0 0 0 0 0 0 0 0 0 0
0 0 0 0 0 0 0 0 0 0 0 0 0 0 0 0 0 0 0 0 0 0 0 0 0 0 0 0 0 0 0 0 0 0 0 0 0 0 0 0 0 0 0
0 0 0 0 0 0 0 0 0 0 0 0 0 0 0 0 0 0 0 0 0 0 0 0 0 0 0 0 0 0 0 0 0 0 0 0 0 0 0 0 0 0 0
0 0 0 0 0 0 0 0 0 0 0 0 0 0 0 0 0 0 0 0 0 0 0 0 0 0 0 0 0 0 0 0 0 0 0 0 0 0 0 0 0 0 0
0 0 0 0 0 0 0 0 0 0 0 0 0 0 0 0 0 0 0 0 0 0 0 1 1 0 0 0 0 0 0 0 0 0 0 0 0 0 0 0 0 0 0
0 0 0 0 0 0 0 0 0 0 0 0 0 0 0 0 0 0 0 0 0 0 1 1 1 1 1 1 0 0 0 0 0 0 0 0 0 0 0 0 0 0 0
0 0 0 0 0 0 0 0 0 0 0 0 0 0 0 0 0 0 0 0 0 1 1 1 1 1 1 1 0 0 0 0 0 0 0 0 0 0 0 0 0 0 0
0 0 0 0 0 0 0 0 0 0 0 0 0 0 0 0 0 0 0 0 0 1 1 1 1 1 1 1 1 0 0 0 0 0 0 0 0 0 0 0 0 0 0
0 0 0 0 0 0 0 0 0 0 0 0 0 0 0 0 0 0 0 0 0 1 1 1 1 1 1 1 1 1 0 0 0 0 0 0 0 0 0 0 0 0 0
0 0 0 0 0 0 0 0 0 0 0 0 0 0 0 0 0 0 0 0 0 0 1 1 1 1 1 1 1 1 0 0 0 0 0 0 0 0 0 0 0 0 0
0 0 0 0 0 0 0 0 0 0 0 0 0 0 0 0 0 0 0 0 0 0 0 1 1 1 1 1 1 1 1 0 0 0 0 0 0 0 0 0 0 0 0
0 0 0 0 0 0 0 0 0 0 0 0 0 0 0 0 0 0 0 0 0 0 0 0 1 1 1 1 1 1 1 1 0 0 0 0 0 0 0 0 0 0 0
0 0 0 0 0 0 0 0 0 0 0 0 0 0 0 0 0 0 0 0 0 0 0 0 0 1 1 1 1 1 1 1 0 0 0 0 0 0 0 0 0 0 0
Wind_Speed
5 6 8 7 7 6 5 5 5 5 4 4 4 4 4 4 3 3 2 2 1 1 1 1 1 2 3 4 3 3 4 4 4 4 4 4 4 4 5 4 3 6 8
4 6 8 6 7 7 6 6 5 5 5 5 5 5 5 4 4 3 2 2 2 1 1 0 1 2 2 3 3 3 3 4 4 4 2 4 5 4 4 3 3 5 7
3 5 7 5 5 6 6 6 6 6 6 6 5 5 5 5 5 4 4 4 3 3 2 1 0 1 1 2 2 3 3 3 3 2 3 2 6 5 3 3 4 5 5
3 3 3 3 3 4 5 5 6 6 6 6 6 6 6 6 5 5 5 4 4 4 3 2 1 0 1 1 2 3 2 2 1 3 3 3 3 7 3 3 3 4 5
4 3 5 3 1 1 2 4 5 6 6 6 6 6 7 6 6 6 6 6 5 5 4 3 2 1 0 1 2 2 2 1 1 5 2 2 3 5 2 3 3 4 5
5 5 7 7 6 4 3 4 4 5 5 6 7 7 7 7 7 7 7 7 6 6 5 4 3 2 1 0 1 2 1 1 6 0 1 1 3 5 2 2 2 3 4
7 6 7 10 8 7 7 6 6 6 6 7 8 8 8 8 8 8 8 8 7 7 6 5 4 3 2 1 1 2 2 3 4 0 1 1 4 4 2 2 3 3 3
7 6 7 9 8 8 8 8 8 8 7 7 8 8 8 8 9 9 9 9 8 8 7 6 5 4 3 2 2 2 2 6 4 1 1 2 5 2 2 2 3 3 3
7 7 6 7 7 7 7 8 9 9 8 8 8 8 9 9 9 9 9 9 9 9 8 7 6 5 4 4 3 3 2 4 6 2 2 2 4 1 2 2 3 3 4
7 7 7 7 6 7 6 6 8 8 8 8 8 9 10 10 11 10 11 10 10 10 9 8 7 7 6 5 5 4 4 6 6 3 2 4 4 1 2 3 3 4 4
7 7 8 8 7 6 6 6 7 7 7 8 8 8 8 8 9 8 10 7 9 10 10 9 9 8 8 8 7 5 6 6 4 3 1 6 2 2 3 3 4 4 4
8 8 7 8 8 7 6 5 4 5 5 6 6 7 6 6 6 7 4 7 10 11 11 11 10 10 10 8 10 9 7 6 5 4 3 5 2 3 3 4 4 5 5
7 8 8 8 7 7 5 5 3 3 4 5 6 6 6 6 5 6 4 5 8 10 9 9 10 9 8 6 5 7 6 5 4 3 5 6 3 4 4 5 5 5 5
8 9 9 9 9 8 7 6 5 4 4 4 5 6 4 4 5 5 4 5 5 4 6 6 5 7 8 8 9 8 7 6 4 3 5 7 4 4 5 5 6 6 6
8 9 9 10 10 9 8 6 6 5 5 6 5 5 5 5 5 5 5 4 5 4 5 5 6 7 7 8 8 8 8 8 7 6 4 8 6 5 5 6 7 7 7
9 10 9 10 10 10 8 7 7 6 5 6 5 6 6 5 5 5 6 5 5 4 4 5 6 6 6 6 8 8 8 8 7 7 5 8 9 7 6 6 7 8 8
9 10 10 10 10 10 9 9 7 6 6 6 5 7 7 6 7 6 6 5 5 5 6 5 7 6 6 6 8 9 8 8 7 8 7 5 7 10 8 7 7 8 8
9 10 10 8 10 10 9 8 7 6 7 6 6 6 7 7 7 6 6 6 6 5 5 5 5 5 6 6 6 7 7 6 9 8 7 7 6 6 10 9 8 8 9
8 9 10 10 10 10 9 7 7 6 6 6 5 5 6 7 7 6 6 6 6 5 5 6 5 5 5 5 5 5 6 6 7 7 9 8 7 6 6 10 10 8 8
8 9 9 9 9 10 8 7 6 5 5 5 5 5 6 6 7 6 6 7 6 5 5 5 6 5 4 4 5 5 5 5 6 6 7 6 6 8 7 7 8 9 9
8 9 9 9 9 8 7 7 6 6 6 5 5 6 6 6 6 6 5 6 5 5 6 6 5 6 5 4 3 3 4 6 6 5 6 6 7 6 7 7 6 6 8
8 9 10 9 9 9 7 7 6 7 6 5 4 5 6 6 5 5 5 5 5 5 6 6 6 4 4 4 4 3 3 4 5 6 6 6 7 7 8 8 8 7 6
8 9 8 9 9 9 8 6 6 5 5 4 5 4 5 5 5 5 6 5 5 5 5 6 6 7 5 5 4 3 3 4 3 4 7 7 6 5 6 7 8 8 8
8 8 9 9 9 9 8 7 8 6 6 7 6 5 6 5 4 4 5 5 5 5 5 6 6 5 6 5 5 4 3 2 3 3 4 6 6 7 7 6 7 8 8
7 7 8 8 8 9 8 7 7 7 6 6 6 6 6 5 5 5 5 5 5 4 5 6 5 6 5 6 5 5 5 3 4 3 3 4 4 4 5 6 5 5 5
6 6 7 8 8 8 8 8 8 8 8 8 8 7 6 5 4 5 5 4 4 4 4 5 5 6 6 7 6 6 5 5 5 4 4 3 4 3 5 4 5 5 4
Wind_Direction
149 152 135 170 167 168 173 178 177 175 172 170 167 166 173 175 175 177 167 173 187 177 131 75 68 65 67 61 56 56 60 68 77 80 77 78 82 95 97 108 164 123 107
139 149 136 178 174 178 182 189 192 191 190 191 188 184 192 193 194 205 208 218 222 223 228 224 48 65 67 58 48 48 55 67 75 82 95 128 104 92 100 89 17 88 119
131 146 155 171 181 186 193 198 203 205 205 204 205 204 205 206 209 215 221 226 232 239 244 237 270 63 63 49 39 38 45 68 75 88 245 166 115 100 97 106 100 108 121
104 131 131 134 192 195 202 209 214 217 218 217 218 218 216 216 218 221 228 231 237 242 241 235 239 201 78 37 24 25 37 75 70 250 233 73 98 96 98 108 116 125 123
66 59 62 38 326 259 242 238 236 232 229 228 228 226 226 227 229 232 235 237 239 240 237 232 236 231 114 38 17 10 27 87 230 256 53 59 76 93 103 107 112 126 133
56 43 50 36 23 5 329 293 273 259 251 248 246 241 239 236 236 239 240 240 239 240 239 236 235 242 235 349 356 356 6 275 245 41 72 82 91 97 104 117 118 128 141
50 39 40 37 27 15 358 334 314 294 278 267 260 255 250 244 242 243 247 246 242 242 243 237 235 242 238 248 306 329 335 286 271 147 152 99 77 89 106 126 137 138 140
49 41 38 39 26 16 3 354 340 320 301 287 276 267 260 256 253 250 249 249 246 243 243 237 234 242 243 247 261 281 297 285 228 216 160 104 78 98 124 134 135 135 133
47 40 31 23 18 17 9 360 350 335 320 306 291 279 270 264 261 258 252 252 249 245 241 236 231 235 242 247 251 259 276 293 275 231 205 107 102 145 154 149 142 134 133
37 31 21 18 6 356 350 7 351 340 330 312 292 282 274 264 258 254 253 244 247 247 243 236 232 231 235 240 241 244 253 254 240 223 214 105 114 183 165 159 148 136 129
25 18 12 4 1 351 338 351 336 327 324 308 287 274 272 262 256 244 247 251 252 250 247 240 235 231 232 221 224 229 240 240 215 239 196 94 145 203 178 168 155 146 138
12 9 5 355 348 342 338 335 323 318 313 303 295 283 271 268 266 264 263 255 257 253 249 242 240 233 234 222 193 203 229 219 227 220 136 118 196 208 191 177 167 159 150
3 1 354 346 340 335 328 323 312 300 298 294 294 289 277 270 264 257 254 241 245 244 242 222 221 229 228 228 233 216 229 227 220 218 142 142 196 212 203 187 179 169 160
3 360 351 346 339 334 328 321 307 301 297 292 289 290 283 275 271 265 255 251 252 253 252 244 238 232 237 235 226 228 216 227 225 217 146 148 195 216 213 198 185 179 173
355 353 352 342 339 336 331 318 311 306 303 297 290 285 283 276 270 267 261 252 251 254 254 251 243 240 237 240 237 235 228 219 223 219 166 158 190 211 217 207 195 186 181
351 349 348 342 340 335 329 324 319 313 303 296 292 283 276 272 269 263 261 257 251 246 250 250 244 243 238 235 237 236 240 232 223 222 219 170 182 199 212 213 202 192 187
345 343 347 340 340 337 331 328 318 310 306 300 294 287 279 273 269 263 259 253 250 248 247 249 249 249 239 227 227 230 228 234 226 220 214 213 185 186 198 210 208 201 196
341 341 343 340 339 339 335 326 317 314 313 306 299 292 286 278 270 269 263 257 250 244 239 239 241 234 238 233 228 219 224 219 234 235 218 206 211 193 183 192 203 205 204
338 337 338 343 338 339 334 323 319 317 314 310 306 301 296 288 280 270 265 263 257 245 237 237 228 226 231 232 235 229 228 221 225 228 229 219 206 205 199 168 188 200 205
339 337 338 338 338 339 334 331 326 321 319 317 315 312 308 296 286 275 266 265 264 253 243 237 234 223 225 220 233 232 226 227 226 226 236 231 223 207 211 192 188 189 195
344 342 341 336 341 341 338 333 331 330 326 324 325 325 314 305 299 282 275 269 262 255 251 243 236 228 221 209 209 225 226 232 233 219 225 228 223 219 216 208 207 198 184
345 344 340 340 341 342 338 326 319 317 313 319 321 320 319 315 307 292 279 271 259 256 250 245 231 229 218 198 199 201 215 216 229 227 218 222 223 210 219 214 206 203 210
345 347 340 339 337 341 337 328 323 320 312 324 329 323 320 316 308 299 293 282 270 261 254 247 234 225 219 204 202 194 199 214 195 211 223 219 220 217 218 219 214 207 205
345 343 340 342 341 342 338 337 335 331 330 330 326 323 316 311 307 301 292 284 276 266 257 249 238 232 224 212 204 211 219 202 201 198 211 219 214 216 220 220 223 218 209
344 343 343 345 346 348 346 345 332 335 334 331 330 330 327 327 320 311 300 287 277 268 265 259 249 239 229 222 211 199 202 207 217 217 207 207 211 215 219 220 222 223 212
343 343 345 347 350 349 347 343 345 342 339 339 341 339 333 328 324 328 317 298 286 277 267 261 252 240 237 230 223 213 204 197 202 208 210 205 211 208 211 215 220 215 210